User: anonymous   Login
Location: Mentone
(34.5413°N, 85.5351°W)
Time: 01:34:50
(UTC-06:00)
Language:

ADEOS Rocket - Orbit

View from above orbital plane
View from above orbital plane
View from above satellite
View from above satellite

Ground track
Ground track

The orbit data is extracted from the following two-line orbital elements,

1 24279U 96046C   18055.18793225  .00000001  00000-0  46602-4 0  9998
2 24279  98.7711 333.2259 0300345   6.8894 155.4302 13.47104295 58173
Epoch (UTC): 24 February 2018 04:30:37
Eccentricity: 0.0300345
inclination: 98.7711°
perigee height: 859 km
apogee height: 1307 km
right ascension of ascending node: 333.2259°
argument of perigee: 6.8894°
revolutions per day: 13.47104295
mean anomaly at epoch: 155.4302°
orbit number at epoch: 5817

The dashed part of the orbit path shows where the satellite is in the earth's shadow,  

DLR